TimeMST,TemperatureF,Dew PointF,Humidity,Sea Level PressureIn,VisibilityMPH,Wind Direction,Wind SpeedMPH,Gust SpeedMPH,PrecipitationIn,Events,Conditions,WindDirDegrees,DateUTC
12:15 AM,21.2,10.4,63,29.75,10.0,SSE,4.6,17.3,N/A,,Overcast,150,2012-12-08 07:15:00
12:35 AM,21.2,10.4,63,29.75,10.0,SE,9.2,16.1,N/A,,Scattered Clouds,140,2012-12-08 07:35:00
12:55 AM,23.0,10.4,59,29.73,10.0,South,15.0,24.2,N/A,,Clear,180,2012-12-08 07:55:00
1:15 AM,23.0,10.4,59,29.72,10.0,South,12.7,19.6,N/A,,Clear,170,2012-12-08 08:15:00
1:35 AM,23.0,12.2,63,29.71,10.0,South,16.1,21.9,N/A,,Clear,180,2012-12-08 08:35:00
1:55 AM,23.0,12.2,63,29.70,10.0,SSW,19.6,27.6,N/A,,Clear,200,2012-12-08 08:55:00
2:15 AM,23.0,12.2,63,29.69,10.0,South,16.1,25.3,N/A,,Clear,190,2012-12-08 09:15:00
2:35 AM,23.0,12.2,63,29.68,10.0,South,13.8,19.6,N/A,,Clear,190,2012-12-08 09:35:00
2:55 AM,23.0,12.2,63,29.67,10.0,SSE,10.4,16.1,N/A,,Clear,160,2012-12-08 09:55:00
3:15 AM,21.2,12.2,68,29.67,10.0,SE,9.2,-,N/A,,Clear,140,2012-12-08 10:15:00
3:35 AM,21.2,12.2,68,29.66,10.0,SSE,13.8,21.9,N/A,,Clear,150,2012-12-08 10:35:00
3:55 AM,21.2,12.2,68,29.64,10.0,South,20.7,26.5,N/A,,Clear,180,2012-12-08 10:55:00
4:15 AM,23.0,14.0,68,29.64,10.0,South,13.8,21.9,N/A,,Clear,180,2012-12-08 11:15:00
4:35 AM,23.0,14.0,68,29.64,10.0,SSW,23.0,-,N/A,,Clear,200,2012-12-08 11:35:00
4:55 AM,24.8,14.0,64,29.64,10.0,SW,26.5,39.1,N/A,,Clear,220,2012-12-08 11:55:00
5:15 AM,24.8,15.8,69,29.64,10.0,SW,21.9,29.9,N/A,,Clear,230,2012-12-08 12:15:00
5:35 AM,23.0,14.0,68,29.63,10.0,SSW,19.6,31.1,N/A,,Clear,210,2012-12-08 12:35:00
5:55 AM,23.0,14.0,68,29.62,10.0,SSW,23.0,28.8,N/A,,Clear,210,2012-12-08 12:55:00
6:15 AM,21.2,15.8,80,29.62,10.0,SSW,23.0,-,N/A,,Clear,210,2012-12-08 13:15:00
6:35 AM,23.0,14.0,68,29.62,10.0,SSW,24.2,31.1,N/A,,Clear,210,2012-12-08 13:35:00
6:55 AM,23.0,14.0,68,29.62,10.0,SSW,17.3,31.1,N/A,,Clear,200,2012-12-08 13:55:00
7:15 AM,23.0,14.0,68,29.62,10.0,SSW,21.9,26.5,N/A,,Clear,210,2012-12-08 14:15:00
7:35 AM,23.0,14.0,68,29.60,10.0,SSW,26.5,35.7,N/A,,Scattered Clouds,200,2012-12-08 14:35:00
7:55 AM,23.0,12.2,63,29.61,10.0,SSW,26.5,34.5,N/A,,Clear,200,2012-12-08 14:55:00
8:15 AM,23.0,12.2,63,29.61,10.0,SSW,20.7,33.4,N/A,,Scattered Clouds,210,2012-12-08 15:15:00
8:35 AM,17.6,12.2,79,29.64,10.0,NW,12.7,21.9,N/A,,Mostly Cloudy,310,2012-12-08 15:35:00
8:55 AM,17.6,14.0,86,29.66,0.2,NW,26.5,-,N/A,Fog,Light Freezing Fog,320,2012-12-08 15:55:00
9:15 AM,17.6,15.8,93,29.66,0.2,NW,28.8,32.2,N/A,Snow,Snow,320,2012-12-08 16:15:00
9:35 AM,17.6,15.8,93,29.67,0.2,NW,21.9,-,N/A,Snow,Snow,320,2012-12-08 16:35:00
9:55 AM,17.6,14.0,86,29.67,0.5,NW,26.5,-,N/A,Snow,Snow,320,2012-12-08 16:55:00
10:15 AM,17.6,14.0,86,29.68,0.2,NW,26.5,-,N/A,Snow,Light Snow,320,2012-12-08 17:15:00
10:35 AM,17.6,14.0,86,29.69,0.2,NW,25.3,-,N/A,Snow,Snow,320,2012-12-08 17:35:00
10:55 AM,17.6,14.0,86,29.71,0.5,NW,19.6,-,N/A,Snow,Light Snow,320,2012-12-08 17:55:00
11:15 AM,17.6,15.8,93,29.71,0.8,NNW,11.5,-,N/A,,Overcast,330,2012-12-08 18:15:00
11:35 AM,17.6,14.0,86,29.71,2.0,WSW,6.9,-,N/A,,Overcast,250,2012-12-08 18:35:00
11:55 AM,17.6,15.8,93,29.70,10.0,South,11.5,16.1,N/A,,Mostly Cloudy,170,2012-12-08 18:55:00
12:15 PM,17.6,14.0,86,29.68,4.0,SE,17.3,23.0,N/A,,Scattered Clouds,140,2012-12-08 19:15:00
12:35 PM,19.4,6.8,58,29.70,10.0,SW,12.7,16.1,N/A,,Scattered Clouds,230,2012-12-08 19:35:00
12:55 PM,19.4,5.0,54,29.69,10.0,WNW,24.2,28.8,N/A,,Scattered Clouds,300,2012-12-08 19:55:00
1:15 PM,17.6,15.8,93,29.70,10.0,NNW,24.2,-,N/A,,Overcast,330,2012-12-08 20:15:00
1:35 PM,17.6,15.8,93,29.70,5.0,NW,25.3,-,N/A,,Overcast,320,2012-12-08 20:35:00
1:55 PM,17.6,14.0,86,29.71,7.0,NW,25.3,-,N/A,Snow,Light Snow,320,2012-12-08 20:55:00
2:35 PM,17.6,14.0,86,29.73,10.0,NW,27.6,34.5,N/A,,Overcast,320,2012-12-08 21:35:00
2:55 PM,17.6,10.4,73,29.74,7.0,NW,32.2,36.8,N/A,,Overcast,310,2012-12-08 21:55:00
3:15 PM,17.6,6.8,63,29.75,10.0,NW,31.1,34.5,N/A,,Overcast,320,2012-12-08 22:15:00
3:35 PM,17.6,8.6,68,29.77,10.0,NW,29.9,-,N/A,,Overcast,320,2012-12-08 22:35:00
4:15 PM,14.0,12.2,93,29.79,-9999.0,NW,40.3,-,N/A,,Unknown,320,2012-12-08 23:15:00
4:35 PM,14.0,10.4,86,29.80,-9999.0,NNW,40.3,-,N/A,,Unknown,330,2012-12-08 23:35:00
4:55 PM,12.2,10.4,92,29.81,-9999.0,NNW,38.0,-,N/A,,Overcast,330,2012-12-08 23:55:00
5:15 PM,12.2,10.4,92,29.82,-9999.0,NNW,39.1,-,N/A,,Overcast,330,2012-12-09 00:15:00
5:35 PM,12.2,10.4,92,29.83,-9999.0,NW,40.3,-,N/A,,Overcast,320,2012-12-09 00:35:00
5:55 PM,12.2,10.4,92,29.84,-9999.0,NW,40.3,-,N/A,,Overcast,320,2012-12-09 00:55:00
6:15 PM,12.2,10.4,92,29.84,-9999.0,NW,42.6,46.0,N/A,,Overcast,320,2012-12-09 01:15:00
6:35 PM,12.2,10.4,92,29.85,-9999.0,NW,40.3,-,N/A,,Overcast,320,2012-12-09 01:35:00
7:15 PM,12.2,10.4,92,29.87,-9999.0,NNW,38.0,43.7,N/A,,Overcast,330,2012-12-09 02:15:00
7:35 PM,12.2,10.4,92,29.87,-9999.0,NW,43.7,47.2,N/A,,Overcast,320,2012-12-09 02:35:00
7:55 PM,12.2,10.4,92,29.88,-9999.0,NNW,40.3,44.9,N/A,,Overcast,330,2012-12-09 02:55:00
8:15 PM,12.2,8.6,85,29.88,-9999.0,NNW,42.6,-,N/A,,Overcast,330,2012-12-09 03:15:00
8:35 PM,10.4,8.6,92,29.89,-9999.0,NW,41.4,48.3,N/A,,Overcast,320,2012-12-09 03:35:00
8:55 PM,10.4,8.6,92,29.90,-9999.0,NW,39.1,-,N/A,,Overcast,320,2012-12-09 03:55:00
9:35 PM,10.4,6.8,85,29.90,-9999.0,NW,42.6,-,N/A,,Overcast,320,2012-12-09 04:35:00
9:55 PM,8.6,6.8,92,29.90,-9999.0,NW,41.4,-,N/A,,Overcast,320,2012-12-09 04:55:00
10:15 PM,8.6,5.0,85,29.89,-9999.0,NW,44.9,-,N/A,,Overcast,310,2012-12-09 05:15:00
10:35 PM,8.6,5.0,85,29.91,-9999.0,NW,41.4,-,N/A,,Overcast,320,2012-12-09 05:35:00
10:55 PM,8.6,5.0,85,29.92,-9999.0,NW,43.7,-,N/A,,Overcast,320,2012-12-09 05:55:00
11:15 PM,8.6,5.0,85,29.94,-9999.0,NW,38.0,-,N/A,,Overcast,310,2012-12-09 06:15:00
11:35 PM,8.6,5.0,85,29.94,-9999.0,NW,38.0,41.4,N/A,,Overcast,310,2012-12-09 06:35:00
11:55 PM,6.8,3.2,85,29.95,-9999.0,NW,36.8,-,N/A,,Overcast,310,2012-12-09 06:55:00